| time (UTC) | temp F | wind direction | speed MPH | gust MPH | rain 1hr in | rain 24hr in | rain mn in | humidity % | barometer mb |
| 20260505124811 | 40 | 108 | 1.0 | 1.0 | 0.00 | 0.00 | 0.00 | 93 | 1297.3 |
| 20260505124308 | 41 | 132 | 2.0 | 2.0 | 0.00 | 0.00 | 0.00 | 92 | 1297.0 |
| 20260505123804 | 41 | 126 | 3.0 | 5.0 | 0.00 | 0.00 | 0.00 | 92 | 1296.8 |
| 20260505123301 | 41 | 102 | 2.0 | 2.0 | 0.00 | 0.00 | 0.00 | 92 | 1297.1 |
| 20260505122757 | 41 | 122 | 4.0 | 6.0 | 0.00 | 0.00 | 0.00 | 91 | 1297.3 |
| 20260505122255 | 41 | 114 | 3.0 | 5.0 | 0.00 | 0.00 | 0.00 | 90 | 1296.7 |
| 20260505121751 | 41 | 107 | 3.0 | 3.0 | 0.00 | 0.00 | 0.00 | 89 | 1296.5 |
| 20260505121248 | 41 | 119 | 3.0 | 3.0 | 0.00 | 0.00 | 0.00 | 89 | 1296.3 |
| 20260505120744 | 41 | 108 | 2.0 | 2.0 | 0.00 | 0.00 | 0.00 | 89 | 1296.7 |
| 20260505120240 | 41 | 106 | 1.0 | 1.0 | 0.00 | 0.00 | 0.00 | 88 | 1296.5 |
| 20260505115739 | 41 | 110 | 3.0 | 3.0 | 0.00 | 0.00 | 0.00 | 88 | 1296.4 |
| 20260505115237 | 41 | 116 | 1.0 | 1.0 | 0.00 | 0.00 | 0.00 | 87 | 1296.4 |
| 20260505114734 | 41 | 110 | 0.0 | 0.0 | 0.00 | 0.00 | 0.00 | 87 | 1296.8 |
| 20260505114230 | 41 | 130 | 1.0 | 1.0 | 0.00 | 0.00 | 0.00 | 88 | 1296.7 |
| 20260505113727 | 41 | 105 | 0.0 | 0.0 | 0.00 | 0.00 | 0.00 | 88 | 1296.4 |
| 20260505113223 | 42 | 98 | 3.0 | 3.0 | 0.00 | 0.00 | 0.00 | 88 | 1296.3 |
| 20260505112720 | 42 | 114 | 1.0 | 2.0 | 0.00 | 0.00 | 0.00 | 89 | 1296.2 |
| 20260505112218 | 42 | 98 | 0.0 | 1.0 | 0.00 | 0.00 | 0.00 | 88 | 1296.3 |
| 20260505111717 | 42 | 96 | 3.0 | 5.0 | 0.00 | 0.00 | 0.00 | 89 | 1296.4 |
| 20260505111214 | 42 | 104 | 2.0 | 3.0 | 0.00 | 0.00 | 0.00 | 89 | 1296.4 |
| 20260505110709 | 42 | 134 | 1.0 | 1.0 | 0.00 | 0.00 | 0.00 | 91 | 1296.7 |
| 20260505110207 | 42 | 103 | 2.0 | 2.0 | 0.00 | 0.00 | 0.00 | 92 | 1296.7 |
| 20260505102142 | 41 | 124 | 1.0 | 2.0 | 0.00 | 0.00 | 0.00 | 97 | 1296.4 |
| 20260505101641 | 41 | 105 | 2.0 | 2.0 | 0.00 | 0.00 | 0.00 | 97 | 1296.4 |
| 20260505101137 | 41 | 107 | 0.0 | 0.0 | 0.00 | 0.00 | 0.00 | 97 | 1296.3 |
| 20260505100633 | 41 | 103 | 1.0 | 1.0 | 0.00 | 0.00 | 0.00 | 97 | 1296.2 |
| 20260505100130 | 41 | 98 | 0.0 | 0.0 | 0.00 | 0.00 | 0.00 | 96 | 1296.2 |
| 20260505095626 | 41 | 95 | 0.0 | 0.0 | 0.00 | 0.00 | 0.00 | 96 | 1296.4 |
| 20260505095123 | 41 | 110 | 0.0 | 0.0 | 0.00 | 0.00 | 0.00 | 96 | 1296.3 |
| 20260505094620 | 41 | 92 | 1.0 | 2.0 | 0.00 | 0.00 | 0.00 | 96 | 1296.4 |
| 20260505094116 | 41 | 107 | 0.0 | 0.0 | 0.00 | 0.00 | 0.00 | 96 | 1296.0 |
| 20260505093612 | 41 | 101 | 0.0 | 0.0 | 0.00 | 0.00 | 0.00 | 95 | 1295.9 |
| 20260505093110 | 41 | 97 | 0.0 | 0.0 | 0.00 | 0.00 | 0.00 | 95 | 1295.8 |
| 20260505092607 | 42 | 96 | 0.0 | 0.0 | 0.00 | 0.00 | 0.00 | 95 | 1295.8 |
| 20260505092106 | 42 | 100 | 0.0 | 0.0 | 0.00 | 0.00 | 0.00 | 95 | 1295.9 |
| 20260505091602 | 42 | 121 | 0.0 | 1.0 | 0.00 | 0.00 | 0.00 | 95 | 1296.2 |
| 20260505091100 | 42 | 109 | 0.0 | 0.0 | 0.00 | 0.00 | 0.00 | 95 | 1296.4 |
| 20260505090558 | 42 | 107 | 0.0 | 0.0 | 0.00 | 0.00 | 0.00 | 95 | 1296.3 |
| 20260505090056 | 42 | 135 | 0.0 | 0.0 | 0.00 | 0.00 | 0.00 | 95 | 1296.2 |
| 20260505085553 | 42 | 112 | 0.0 | 0.0 | 0.00 | 0.00 | 0.00 | 96 | 1296.3 |
| 20260505085051 | 42 | 103 | 0.0 | 1.0 | 0.00 | 0.00 | 0.00 | 97 | 1296.5 |
| 20260505084549 | 43 | 81 | 0.0 | 0.0 | 0.00 | 0.00 | 0.00 | 97 | 1296.5 |
| 20260505084047 | 43 | 94 | 0.0 | 0.0 | 0.00 | 0.00 | 0.00 | 97 | 1296.9 |
| 20260505083543 | 43 | 91 | 0.0 | 0.0 | 0.00 | 0.00 | 0.00 | 97 | 1297.1 |
| 20260505083040 | 43 | 95 | 0.0 | 0.0 | 0.00 | 0.00 | 0.00 | 97 | 1296.8 |
| 20260505082536 | 43 | 76 | 0.0 | 0.0 | 0.00 | 0.00 | 0.00 | 97 | 1296.8 |
| 20260505082033 | 43 | 93 | 0.0 | 0.0 | 0.00 | 0.00 | 0.00 | 98 | 1297.4 |
| 20260505081529 | 43 | 102 | 0.0 | 0.0 | 0.00 | 0.00 | 0.00 | 98 | 1297.1 |
| 20260505081027 | 43 | 70 | 0.0 | 1.0 | 0.00 | 0.00 | 0.00 | 97 | 1296.8 |
| 20260505080523 | 43 | 50 | 2.0 | 2.0 | 0.00 | 0.00 | 0.00 | 97 | 1296.9 |
| 20260505080020 | 44 | 88 | 1.0 | 1.0 | 0.00 | 0.00 | 0.00 | 97 | 1297.3 |
| 20260505075515 | 43 | 90 | 1.0 | 1.0 | 0.00 | 0.00 | 0.00 | 97 | 1297.0 |
| 20260505075012 | 44 | 74 | 1.0 | 1.0 | 0.00 | 0.00 | 0.00 | 97 | 1297.0 |
| 20260505074510 | 44 | 80 | 0.0 | 0.0 | 0.00 | 0.00 | 0.00 | 97 | 1297.0 |
| 20260505074007 | 43 | 109 | 1.0 | 1.0 | 0.00 | 0.00 | 0.00 | 97 | 1297.3 |
| 20260505073504 | 43 | 70 | 1.0 | 1.0 | 0.00 | 0.00 | 0.00 | 97 | 1297.1 |
| 20260505073002 | 43 | 17 | 1.0 | 1.0 | 0.00 | 0.00 | 0.00 | 97 | 1297.1 |
| 20260505072458 | 43 | 25 | 1.0 | 1.0 | 0.00 | 0.00 | 0.00 | 97 | 1297.0 |
| 20260505071954 | 43 | 68 | 1.0 | 1.0 | 0.00 | 0.00 | 0.00 | 96 | 1297.4 |
| 20260505071449 | 43 | 63 | 2.0 | 2.0 | 0.00 | 0.00 | 0.00 | 96 | 1297.3 |
| 20260505070948 | 43 | 2 | 3.0 | 5.0 | 0.00 | 0.00 | 0.00 | 96 | 1297.4 |
| 20260505070444 | 44 | 288 | 3.0 | 5.0 | 0.00 | 0.00 | 0.00 | 96 | 1297.5 |
| 20260505065940 | 44 | 104 | 1.0 | 1.0 | 0.00 | 0.00 | 0.00 | 96 | 1297.3 |
| 20260505065437 | 44 | 93 | 1.0 | 1.0 | 0.00 | 0.00 | 0.00 | 95 | 1297.5 |
| 20260505064933 | 44 | 1 | 4.0 | 5.0 | 0.00 | 0.00 | 0.00 | 95 | 1297.3 |
| 20260505064431 | 44 | 57 | 1.0 | 1.0 | 0.00 | 0.00 | 0.00 | 95 | 1297.1 |
| 20260505063929 | 44 | 1 | 3.0 | 3.0 | 0.00 | 0.00 | 0.00 | 95 | 1297.4 |
| 20260505063425 | 44 | 27 | 1.0 | 2.0 | 0.00 | 0.00 | 0.00 | 95 | 1297.4 |
| 20260505062922 | 44 | 17 | 1.0 | 2.0 | 0.00 | 0.00 | 0.00 | 95 | 1297.4 |
| 20260505062419 | 44 | 74 | 1.0 | 1.0 | 0.00 | 0.00 | 0.00 | 94 | 1297.0 |
| 20260505061915 | 44 | 94 | 1.0 | 2.0 | 0.00 | 0.00 | 0.00 | 94 | 1297.1 |
| 20260505061414 | 44 | 26 | 4.0 | 5.0 | 0.00 | 0.00 | 0.00 | 93 | 1297.0 |
| 20260505060911 | 44 | 95 | 1.0 | 1.0 | 0.00 | 0.00 | 0.00 | 92 | 1297.4 |
| 20260505060408 | 44 | 340 | 3.0 | 3.0 | 0.00 | 0.00 | 0.00 | 92 | 1297.5 |
| 20260505055904 | 44 | 17 | 2.0 | 5.0 | 0.05 | 0.04 | 0.04 | 91 | 1297.8 |
| 20260505055400 | 44 | 56 | 1.0 | 2.0 | 0.05 | 0.04 | 0.04 | 90 | 1297.9 |
| 20260505054857 | 45 | 36 | 1.0 | 2.0 | 0.00 | 0.03 | 0.03 | 89 | 1297.4 |
| 20260505054354 | 45 | 36 | 2.0 | 2.0 | 0.00 | 0.03 | 0.03 | 88 | 1297.9 |
| 20260505053852 | 45 | 36 | 3.0 | 3.0 | 0.07 | 0.03 | 0.03 | 87 | 1297.6 |
| 20260505053349 | 45 | 346 | 4.0 | 5.0 | 0.07 | 0.03 | 0.03 | 86 | 1297.6 |
| 20260505052846 | 46 | 108 | 3.0 | 3.0 | 0.00 | 0.02 | 0.02 | 84 | 1297.4 |
| 20260505052343 | 46 | 21 | 2.0 | 3.0 | 0.00 | 0.02 | 0.02 | 81 | 1297.8 |
| 20260505051840 | 46 | 50 | 1.0 | 1.0 | 0.00 | 0.02 | 0.02 | 82 | 1297.6 |
| 20260505051337 | 46 | 103 | 0.0 | 0.0 | 0.00 | 0.02 | 0.02 | 82 | 1297.8 |
| 20260505050835 | 46 | 95 | 0.0 | 0.0 | 0.00 | 0.02 | 0.02 | 82 | 1297.6 |
| 20260505050334 | 46 | 96 | 0.0 | 0.0 | 0.00 | 0.02 | 0.02 | 81 | 1297.5 |
| 20260505041301 | 46 | 8 | 5.0 | 6.0 | 0.00 | 0.02 | 0.02 | 80 | 1296.7 |
| 20260505040758 | 46 | 314 | 5.0 | 7.0 | 0.00 | 0.02 | 0.02 | 82 | 1296.7 |
| 20260505040255 | 46 | 43 | 5.0 | 7.0 | 0.00 | 0.02 | 0.02 | 82 | 1296.8 |
| 20260505035752 | 46 | 14 | 4.0 | 5.0 | 0.00 | 0.02 | 0.02 | 82 | 1296.4 |
| 20260505035248 | 46 | 326 | 4.0 | 6.0 | 0.00 | 0.02 | 0.02 | 82 | 1296.4 |
| 20260505034745 | 46 | 347 | 5.0 | 6.0 | 0.00 | 0.02 | 0.02 | 81 | 1296.5 |
| 20260505034242 | 46 | 349 | 4.0 | 6.0 | 0.00 | 0.02 | 0.02 | 80 | 1296.7 |
| 20260505033738 | 46 | 244 | 7.0 | 8.0 | 0.00 | 0.02 | 0.02 | 82 | 1296.8 |
| 20260505033236 | 46 | 1 | 6.0 | 7.0 | 0.00 | 0.02 | 0.02 | 84 | 1296.5 |
| 20260505032734 | 46 | 15 | 4.0 | 6.0 | 0.00 | 0.02 | 0.02 | 84 | 1296.7 |
| 20260505032229 | 46 | 92 | 3.0 | 7.0 | 0.00 | 0.02 | 0.02 | 83 | 1296.8 |
| 20260505031727 | 47 | 315 | 3.0 | 5.0 | 0.00 | 0.02 | 0.02 | 80 | 1296.5 |
| 20260505031223 | 47 | 328 | 4.0 | 5.0 | 0.00 | 0.02 | 0.02 | 80 | 1296.3 |
| 20260505030721 | 47 | 297 | 6.0 | 8.0 | 0.00 | 0.02 | 0.02 | 80 | 1296.2 |
| 20260505030217 | 47 | 353 | 5.0 | 7.0 | 0.00 | 0.02 | 0.02 | 79 | 1296.3 |
| 20260505025712 | 47 | 289 | 7.0 | 8.0 | 0.00 | 0.02 | 0.02 | 80 | 1296.2 |
| 20260505025211 | 47 | 330 | 10.0 | 11.0 | 0.00 | 0.02 | 0.02 | 80 | 1296.3 |
| 20260505024709 | 47 | 296 | 6.0 | 7.0 | 0.00 | 0.02 | 0.02 | 81 | 1296.9 |
| 20260505024205 | 47 | 342 | 5.0 | 7.0 | 0.00 | 0.02 | 0.02 | 81 | 1296.5 |
| 20260505023703 | 47 | 2 | 6.0 | 8.0 | 0.00 | 0.02 | 0.02 | 81 | 1296.5 |
| 20260505023200 | 47 | 348 | 4.0 | 5.0 | 0.00 | 0.02 | 0.02 | 81 | 1296.5 |
| 20260505022658 | 47 | 61 | 4.0 | 5.0 | 0.00 | 0.02 | 0.02 | 81 | 1296.5 |
| 20260505022154 | 47 | 86 | 1.0 | 2.0 | 0.00 | 0.02 | 0.02 | 82 | 1296.3 |
| 20260505021651 | 47 | 62 | 3.0 | 3.0 | 0.00 | 0.02 | 0.02 | 81 | 1296.2 |
| 20260505021148 | 47 | 82 | 2.0 | 2.0 | 0.00 | 0.02 | 0.02 | 81 | 1296.3 |
| 20260505020643 | 47 | 38 | 2.0 | 2.0 | 0.00 | 0.02 | 0.02 | 82 | 1296.9 |
| 20260505020139 | 46 | 62 | 3.0 | 5.0 | 0.00 | 0.02 | 0.02 | 81 | 1296.8 |
| 20260505015637 | 46 | 12 | 4.0 | 6.0 | 0.00 | 0.02 | 0.02 | 82 | 1296.7 |
| 20260505015133 | 47 | 30 | 7.0 | 8.0 | 0.00 | 0.02 | 0.02 | 82 | 1296.7 |
| 20260505014630 | 49 | 341 | 8.0 | 10.0 | 0.07 | 0.02 | 0.02 | 76 | 1296.5 |
| 20260505014127 | 49 | 35 | 1.0 | 2.0 | 0.07 | 0.02 | 0.02 | 75 | 1296.3 |
| 20260505013625 | 50 | 14 | 4.0 | 5.0 | 0.05 | 0.01 | 0.01 | 69 | 1296.3 |
| 20260505013122 | 50 | 47 | 2.0 | 3.0 | 0.00 | 0.00 | 0.00 | 69 | 1296.5 |
| 20260505012620 | 51 | 40 | 1.0 | 1.0 | 0.00 | 0.00 | 0.00 | 71 | 1296.3 |
| 20260505012116 | 51 | 111 | 0.0 | 1.0 | 0.00 | 0.00 | 0.00 | 68 | 1296.5 |
| 20260505011612 | 52 | 334 | 3.0 | 5.0 | 0.00 | 0.00 | 0.00 | 63 | 1296.3 |
| 20260505011110 | 53 | 338 | 6.0 | 8.0 | 0.00 | 0.00 | 0.00 | 58 | 1296.2 |
| 20260505010605 | 54 | 313 | 6.0 | 9.0 | 0.00 | 0.00 | 0.00 | 56 | 1296.0 |
| 20260505005558 | 54 | 275 | 3.0 | 3.0 | 0.00 | 0.00 | 0.00 | 53 | 1295.7 |
| 20260505005055 | 55 | 260 | 4.0 | 6.0 | 0.00 | 0.00 | 0.00 | 52 | 1295.4 |
| 20260505004552 | 55 | 27 | 6.0 | 7.0 | 0.00 | 0.00 | 0.00 | 51 | 1295.2 |
| 20260505004049 | 55 | 335 | 4.0 | 5.0 | 0.00 | 0.00 | 0.00 | 50 | 1295.2 |
| 20260505003546 | 56 | 21 | 1.0 | 2.0 | 0.00 | 0.00 | 0.00 | 50 | 1294.8 |
| 20260505003043 | 56 | 356 | 9.0 | 13.0 | 0.00 | 0.00 | 0.00 | 48 | 1294.7 |
| 20260505002538 | 56 | 319 | 6.0 | 9.0 | 0.00 | 0.00 | 0.00 | 49 | 1294.6 |
| 20260505002037 | 57 | 21 | 4.0 | 6.0 | 0.00 | 0.00 | 0.00 | 48 | 1294.0 |
| 20260505001534 | 57 | 326 | 5.0 | 6.0 | 0.00 | 0.00 | 0.00 | 47 | 1294.3 |
| 20260505001031 | 57 | 2 | 3.0 | 5.0 | 0.00 | 0.00 | 0.00 | 47 | 1294.1 |
| 20260505000529 | 58 | 54 | 3.0 | 5.0 | 0.00 | 0.00 | 0.00 | 47 | 1294.2 |
| 20260505000026 | 59 | 323 | 7.0 | 9.0 | 0.00 | 0.00 | 0.00 | 45 | 1294.1 |
| 20260504235523 | 59 | 8 | 8.0 | 10.0 | 0.00 | 0.00 | 0.00 | 44 | 1294.5 |
| 20260504235019 | 60 | 35 | 4.0 | 6.0 | 0.00 | 0.00 | 0.00 | 45 | 1294.0 |
| 20260504234516 | 60 | 341 | 9.0 | 10.0 | 0.00 | 0.00 | 0.00 | 44 | 1294.1 |
| 20260504234013 | 60 | 19 | 5.0 | 6.0 | 0.00 | 0.00 | 0.00 | 45 | 1294.1 |
| 20260504233508 | 60 | 58 | 5.0 | 7.0 | 0.00 | 0.00 | 0.00 | 45 | 1294.2 |
| 20260504233006 | 61 | 42 | 8.0 | 10.0 | 0.00 | 0.00 | 0.00 | 44 | 1294.1 |
| 20260504232503 | 62 | 1 | 3.0 | 3.0 | 0.00 | 0.00 | 0.00 | 43 | 1294.2 |
| 20260504232000 | 61 | 41 | 3.0 | 3.0 | 0.00 | 0.00 | 0.00 | 42 | 1294.2 |
| 20260504231456 | 63 | 324 | 2.0 | 2.0 | 0.00 | 0.00 | 0.00 | 44 | 1294.1 |
| 20260504230953 | 61 | 111 | 0.0 | 1.0 | 0.00 | 0.00 | 0.00 | 45 | 1294.0 |
| 20260504230449 | 61 | 337 | 1.0 | 2.0 | 0.00 | 0.00 | 0.00 | 45 | 1294.5 |
| 20260504225948 | 60 | 118 | 1.0 | 2.0 | 0.00 | 0.00 | 0.00 | 45 | 1294.3 |
| 20260504225445 | 60 | 155 | 5.0 | 7.0 | 0.00 | 0.00 | 0.00 | 45 | 1293.8 |
| 20260504224942 | 60 | 129 | 3.0 | 5.0 | 0.00 | 0.00 | 0.00 | 46 | 1294.1 |
| 20260504224438 | 60 | 88 | 3.0 | 3.0 | 0.00 | 0.00 | 0.00 | 45 | 1294.5 |
| 20260504223936 | 60 | 109 | 1.0 | 1.0 | 0.00 | 0.00 | 0.00 | 45 | 1294.3 |
| 20260504223431 | 60 | 170 | 3.0 | 5.0 | 0.00 | 0.00 | 0.00 | 44 | 1294.3 |
| 20260504222927 | 60 | 105 | 2.0 | 3.0 | 0.00 | 0.00 | 0.00 | 44 | 1294.3 |
| 20260504222425 | 60 | 105 | 5.0 | 6.0 | 0.00 | 0.00 | 0.00 | 44 | 1294.3 |
| 20260504221923 | 60 | 65 | 2.0 | 2.0 | 0.00 | 0.00 | 0.00 | 43 | 1294.5 |
| 20260504221419 | 62 | 120 | 5.0 | 7.0 | 0.00 | 0.00 | 0.00 | 43 | 1294.3 |
| 20260504220916 | 61 | 100 | 3.0 | 3.0 | 0.00 | 0.00 | 0.00 | 42 | 1294.0 |
| 20260504220413 | 61 | 186 | 5.0 | 7.0 | 0.00 | 0.00 | 0.00 | 42 | 1294.2 |
| 20260504215910 | 61 | 298 | 5.0 | 7.0 | 0.00 | 0.00 | 0.00 | 41 | 1294.2 |
| 20260504215407 | 61 | 2 | 2.0 | 8.0 | 0.00 | 0.00 | 0.00 | 41 | 1294.0 |
| 20260504214903 | 61 | 349 | 7.0 | 7.0 | 0.00 | 0.00 | 0.00 | 39 | 1294.0 |
| 20260504214400 | 61 | 23 | 3.0 | 5.0 | 0.00 | 0.00 | 0.00 | 41 | 1294.2 |
| 20260504213857 | 62 | 342 | 3.0 | 5.0 | 0.00 | 0.00 | 0.00 | 40 | 1293.8 |
| 20260504213352 | 62 | 301 | 6.0 | 8.0 | 0.00 | 0.00 | 0.00 | 39 | 1294.2 |
| 20260504212850 | 63 | 48 | 2.0 | 2.0 | 0.00 | 0.00 | 0.00 | 36 | 1293.6 |
| 20260504212346 | 63 | 3 | 5.0 | 6.0 | 0.00 | 0.00 | 0.00 | 35 | 1293.8 |
| 20260504211844 | 63 | 347 | 10.0 | 13.0 | 0.00 | 0.00 | 0.00 | 34 | 1293.6 |
| 20260504211339 | 64 | 19 | 4.0 | 7.0 | 0.00 | 0.00 | 0.00 | 35 | 1293.7 |
| 20260504210837 | 63 | 354 | 5.0 | 6.0 | 0.00 | 0.00 | 0.00 | 35 | 1293.4 |
| 20260504210334 | 65 | 357 | 7.0 | 10.0 | 0.00 | 0.00 | 0.00 | 34 | 1293.6 |
| 20260504205831 | 65 | 167 | 4.0 | 6.0 | 0.00 | 0.00 | 0.00 | 35 | 1293.4 |
| 20260504205329 | 65 | 320 | 3.0 | 3.0 | 0.00 | 0.00 | 0.00 | 34 | 1293.4 |
| 20260504204827 | 66 | 200 | 4.0 | 8.0 | 0.00 | 0.00 | 0.00 | 32 | 1293.6 |
| 20260504204325 | 65 | 156 | 1.0 | 1.0 | 0.00 | 0.00 | 0.00 | 36 | 1293.6 |
| 20260504203824 | 65 | 270 | 2.0 | 3.0 | 0.00 | 0.00 | 0.00 | 33 | 1293.7 |
| 20260504203321 | 65 | 262 | 3.0 | 5.0 | 0.00 | 0.00 | 0.00 | 34 | 1294.0 |
| 20260504202816 | 65 | 236 | 4.0 | 5.0 | 0.00 | 0.00 | 0.00 | 32 | 1294.3 |
| 20260504202314 | 65 | 326 | 2.0 | 3.0 | 0.00 | 0.00 | 0.00 | 35 | 1294.3 |
| 20260504201810 | 64 | 288 | 1.0 | 2.0 | 0.00 | 0.00 | 0.00 | 35 | 1294.0 |
| 20260504201308 | 64 | 221 | 4.0 | 5.0 | 0.00 | 0.00 | 0.00 | 35 | 1294.1 |
| 20260504200805 | 64 | 262 | 6.0 | 9.0 | 0.00 | 0.00 | 0.00 | 34 | 1294.1 |
| 20260504200301 | 64 | 309 | 12.0 | 16.0 | 0.00 | 0.00 | 0.00 | 33 | 1294.3 |
| 20260504195757 | 65 | 329 | 5.0 | 7.0 | 0.00 | 0.00 | 0.00 | 34 | 1294.5 |
| 20260504195253 | 64 | 263 | 5.0 | 7.0 | 0.00 | 0.00 | 0.00 | 34 | 1294.7 |
| 20260504194751 | 64 | 256 | 6.0 | 10.0 | 0.00 | 0.00 | 0.00 | 34 | 1294.3 |
| 20260504194247 | 64 | 318 | 7.0 | 10.0 | 0.00 | 0.00 | 0.00 | 32 | 1294.5 |
| 20260504193743 | 64 | 96 | 0.0 | 0.0 | 0.00 | 0.00 | 0.00 | 28 | 1294.2 |
| 20260504193241 | 65 | 234 | 2.0 | 3.0 | 0.00 | 0.00 | 0.00 | 32 | 1294.3 |
| 20260504192739 | 65 | 201 | 3.0 | 3.0 | 0.00 | 0.00 | 0.00 | 29 | 1294.6 |
| 20260504192237 | 66 | 359 | 1.0 | 1.0 | 0.00 | 0.00 | 0.00 | 30 | 1294.2 |
| 20260504191735 | 67 | 227 | 5.0 | 6.0 | 0.00 | 0.00 | 0.00 | 30 | 1294.6 |
| 20260504191232 | 67 | 312 | 3.0 | 3.0 | 0.00 | 0.00 | 0.00 | 29 | 1294.2 |
| 20260504190727 | 67 | 101 | 0.0 | 0.0 | 0.00 | 0.00 | 0.00 | 31 | 1294.5 |
| 20260504190224 | 66 | 185 | 1.0 | 2.0 | 0.00 | 0.00 | 0.00 | 30 | 1294.6 |
| 20260504185720 | 69 | 112 | 3.0 | 5.0 | 0.00 | 0.00 | 0.00 | 31 | 1295.1 |
| 20260504185217 | 69 | 263 | 3.0 | 5.0 | 0.00 | 0.00 | 0.00 | 33 | 1294.5 |
| 20260504184713 | 68 | 160 | 0.0 | 1.0 | 0.00 | 0.00 | 0.00 | 30 | 1294.8 |
| 20260504184209 | 69 | 87 | 3.0 | 5.0 | 0.00 | 0.00 | 0.00 | 29 | 1294.8 |
| 20260504183705 | 68 | 200 | 2.0 | 3.0 | 0.00 | 0.00 | 0.00 | 32 | 1294.7 |
| 20260504183202 | 68 | 120 | 1.0 | 1.0 | 0.00 | 0.00 | 0.00 | 32 | 1295.2 |
| 20260504182700 | 66 | 128 | 5.0 | 6.0 | 0.00 | 0.00 | 0.00 | 29 | 1295.4 |
| 20260504182157 | 68 | 148 | 1.0 | 1.0 | 0.00 | 0.00 | 0.00 | 33 | 1295.6 |
| 20260504181655 | 66 | 108 | 1.0 | 1.0 | 0.00 | 0.00 | 0.00 | 30 | 1295.3 |
| 20260504181152 | 67 | 271 | 3.0 | 5.0 | 0.00 | 0.00 | 0.00 | 32 | 1295.7 |
| 20260504180651 | 66 | 104 | 3.0 | 5.0 | 0.00 | 0.00 | 0.00 | 32 | 1295.3 |
| 20260504180149 | 67 | 111 | 4.0 | 8.0 | 0.00 | 0.00 | 0.00 | 30 | 1295.6 |
| 20260504175646 | 66 | 81 | 2.0 | 3.0 | 0.00 | 0.00 | 0.00 | 34 | 1295.4 |
| 20260504175143 | 66 | 37 | 1.0 | 1.0 | 0.00 | 0.00 | 0.00 | 32 | 1295.7 |
| 20260504174641 | 65 | 88 | 0.0 | 1.0 | 0.00 | 0.00 | 0.00 | 35 | 1296.0 |
| 20260504174137 | 64 | 205 | 3.0 | 5.0 | 0.00 | 0.00 | 0.00 | 31 | 1296.0 |
| 20260504173635 | 65 | 239 | 4.0 | 6.0 | 0.00 | 0.00 | 0.00 | 31 | 1296.0 |
| 20260504173132 | 63 | 331 | 5.0 | 6.0 | 0.00 | 0.00 | 0.00 | 37 | 1295.9 |
| 20260504172629 | 63 | 296 | 4.0 | 6.0 | 0.00 | 0.00 | 0.00 | 37 | 1295.7 |
| 20260504172125 | 63 | 316 | 5.0 | 7.0 | 0.00 | 0.00 | 0.00 | 37 | 1296.3 |
| 20260504171621 | 63 | 168 | 2.0 | 2.0 | 0.00 | 0.00 | 0.00 | 36 | 1296.2 |
| 20260504171114 | 64 | 273 | 5.0 | 8.0 | 0.00 | 0.00 | 0.00 | 37 | 1296.4 |
| 20260504170609 | 64 | 294 | 5.0 | 6.0 | 0.00 | 0.00 | 0.00 | 38 | 1296.3 |
| 20260504170107 | 64 | 333 | 4.0 | 6.0 | 0.00 | 0.00 | 0.00 | 38 | 1296.5 |
| 20260504150952 | 57 | 15 | 5.0 | 7.0 | 0.00 | 0.00 | 0.00 | 44 | 1297.3 |
| 20260504150449 | 57 | 263 | 4.0 | 6.0 | 0.00 | 0.00 | 0.00 | 45 | 1297.3 |
| 20260504140916 | 56 | 37 | 1.0 | 1.0 | 0.00 | 0.00 | 0.00 | 47 | 1296.9 |
| 20260504140412 | 55 | 70 | 2.0 | 2.0 | 0.00 | 0.00 | 0.00 | 44 | 1296.8 |
| 20260504130331 | 52 | 12 | 4.0 | 5.0 | 0.00 | 0.00 | 0.00 | 43 | 1296.5 |